Home   Weather   Eindhoven   Past weeks

Flag for Netherlands Past Weather in Eindhoven, Netherlands — Yesterday and Last 2 Weeks

Now
48 °F

Overcast.


Feels Like: 43 °F
Forecast: 38 / 47 °F
Wind: 14 mph from Southwest

Location: Eindhoven Airport

Current Time: Dec 9, 2016 at 1:11:39 am

Latest Report: Dec 9, 2016 at 12:25 am


Visibility: N/A

Pressure: 30.33 "Hg

Humidity: 76%

Dew Point: 41 °F

Location of EindhovenLocation

Past Weather in Eindhoven — Graph

°F

Eindhoven Temperature Yesterday

Maximum temperature yesterday: 48 °F (at 12:25 pm)
Minimum temperature yesterday: 43 °F (at 4:25 am)
Average temperature yesterday: 46 °F

High & Low Weather Summary for the Past Weeks

 TemperatureHumidityPressure
High50 °F (Nov 24, 12:55 pm)100% (Nov 26, 6:55 pm)30.57 "Hg (Nov 26, 6:55 pm)
Low19 °F (Nov 30, 12:55 am)48% (Nov 29, 3:25 pm)30.09 "Hg (Nov 23, 11:25 pm)
Average37 °F85%30.31 "Hg
* Reported Nov 23 11:25 pm — Dec 8 11:55 pm, Eindhoven, Weather by CustomWeather, © 2016

Note: Actual official high and low records may vary slightly from our data, if they occured in-between our weather recording intervals... More about our weather records

Advertising

Eindhoven Weather History for the Previous 24 Hours

Scroll right to see more
 ConditionsComfort  
Time TempWeatherWind HumidityBarometerVisibility
11:55 pm
Thu, Dec 8
48 °FMostly cloudy.14 mph76%30.36 "HgN/A
11:25 pm48 °FOvercast.14 mph76%30.33 "HgN/A
10:55 pm48 °FOvercast.14 mph76%30.33 "HgN/A
10:25 pm46 °FOvercast.10 mph82%30.33 "HgN/A
9:55 pm46 °FMostly cloudy.10 mph87%30.33 "HgN/A
9:25 pm45 °FOvercast.12 mph87%30.33 "HgN/A
8:55 pm45 °FLight rain. Overcast.8 mph87%30.33 "HgN/A
8:25 pm46 °FLight rain. Mostly cloudy.10 mph76%30.33 "HgN/A
7:55 pm48 °FOvercast.13 mph71%30.33 "HgN/A
7:25 pm46 °FOvercast.10 mph76%30.30 "HgN/A
6:55 pm46 °FOvercast.13 mph71%30.30 "HgN/A
6:25 pm46 °FMostly cloudy.12 mph71%30.30 "HgN/A
6:00 pm46 °FMostly cloudy.9 mph71%30.30 "HgN/A
5:25 pm45 °FPassing clouds.8 mph76%30.30 "HgN/A
4:55 pm45 °FPassing clouds.7 mph76%30.30 "HgN/A
4:25 pm46 °FOvercast.9 mph71%30.30 "HgN/A
3:55 pm46 °FCool.9 mph66%30.30 "HgN/A
3:25 pm48 °FOvercast.9 mph66%30.33 "HgN/A
2:55 pm48 °FOvercast.8 mph62%30.33 "HgN/A
2:25 pm48 °FOvercast.9 mph62%30.33 "HgN/A
1:55 pm48 °FOvercast.10 mph66%30.33 "HgN/A
1:25 pm48 °FOvercast.12 mph66%30.33 "HgN/A
12:55 pm46 °FPassing clouds.12 mph66%30.33 "HgN/A
12:25 pm48 °FScattered clouds.13 mph62%30.36 "HgN/A
11:55 am46 °FCool.9 mph62%30.36 "HgN/A
11:25 am46 °FOvercast.10 mph62%30.36 "HgN/A
10:55 am45 °FOvercast.10 mph66%30.39 "HgN/A
10:25 am45 °FOvercast.12 mph66%30.39 "HgN/A
9:55 am45 °FOvercast.10 mph66%30.39 "HgN/A
9:25 am45 °FMore clouds than sun.8 mph66%30.39 "HgN/A
8:55 am45 °FOvercast.9 mph66%30.39 "HgN/A
8:25 am43 °FOvercast.9 mph71%30.39 "HgN/A
7:55 am45 °FOvercast.10 mph66%30.39 "HgN/A
7:25 am43 °FOvercast.9 mph71%30.39 "HgN/A
6:55 am45 °FOvercast.10 mph66%30.39 "HgN/A
6:25 am43 °FOvercast.9 mph76%30.39 "HgN/A
5:55 am43 °FMostly cloudy.9 mph76%30.39 "HgN/A
5:25 am43 °FOvercast.8 mph76%30.39 "HgN/A
4:55 am43 °FOvercast.8 mph76%30.39 "HgN/A
4:25 am43 °FOvercast.9 mph71%30.39 "HgN/A
3:25 am45 °FPassing clouds.10 mph66%30.39 "HgN/A
2:25 am45 °FQuite cool.9 mph66%30.39 "HgN/A
1:55 am45 °FQuite cool.9 mph71%30.39 "HgN/A
1:25 am45 °FPassing clouds.12 mph71%30.39 "HgN/A
Weather by CustomWeather, © 2016

See weather overviewHow to use our weather pages